Cheyenne, WY

5:53 AM MST on December 04, 2016 (GMT -0700)
Cheyenne

Weather History for KCYS - November, 2013

Change the Weather History Date:

Tuesday, November 5, 2013

  Actual Average Record
Temperature  
Mean Temperature 28 °F 40 °F  
Max Temperature 32 °F 52 °F 75 °F (1991)
Min Temperature 24 °F 28 °F 4 °F (1967)
Degree Days  
Heating Degree Days 37 25  
Month to date heating degree days 145 122  
Since 1 July heating degree days 1003 981  
Cooling Degree Days 0 0  
Month to date cooling degree days 0 0  
Year to date cooling degree days 520 348  
Moisture  
Dew Point 13 °F    
Average Humidity 61    
Maximum Humidity 85    
Minimum Humidity 36    
Precipitation  
Precipitation 0.02 in 0.02 in 0.54 in (1885)
Month to date precipitation 0.03 0.10  
Year to date precipitation 17.55 14.96  
Snow  
Snow 0.20 in 0.20 in 11.00 in (1922)
Month to date snowfall 0.2 1.1  
Since 1 July snowfall 12.7 7.4  
Snow Depth T in    
Sea Level Pressure  
Sea Level Pressure 30.09 in    
Wind  
Wind Speed 16 mph (NW)    
Max Wind Speed 29 mph    
Max Gust Speed 40 mph    
Visibility 8 miles    
Events Snow    
T = Trace of Precipitation, MM = Missing Value Source: NWS Daily Summary

Daily Weather History Graph

Daily Weather History Graph

Search for Another Location

Airport or City:

Trip Planner

Search our weather history database for the weather conditions in past years. The results will help you decide how hot, cold, wet, or windy it might be!

Date:

Astronomy

Nov. 05, 2013 Rise Set
Actual Time 6:35 AM MST 4:49 PM MST
Civil Twilight 6:06 AM MST 5:18 PM MST
Nautical Twilight 5:33 AM MST 5:51 PM MST
Astronomical Twilight 5:01 AM MST 6:23 PM MST
Moon 8:53 AM MST (11/5) 6:52 PM MST (11/5)
Length of Visible Light 11h 12m
Length of Day
10h 14m
Waxing Crescent, 7% of the Moon is Illuminated
Nov 5
Waxing Crescent
Nov 9
First Quarter
Nov 17
Full
Nov 25
Last Quarter
Dec 2
New

Hourly Weather History & Observations

Time (MST) Temp. Windchill Dew Point Humidity Pressure Visibility Wind Dir Wind Speed Gust Speed Precip Events Conditions
12:53 AM 28.0 °F 18.1 °F 24.1 °F 85% 30.00 in 10.0 mi North 11.5 mph - N/A   Overcast
1:30 AM 28.4 °F 19.7 °F 24.8 °F 86% 29.94 in 1.8 mi North 9.2 mph - 0.00 in Snow Light Snow
1:53 AM 28.0 °F 18.6 °F 25.0 °F 88% 29.99 in 2.0 mi North 10.4 mph - 0.01 in Snow Light Snow
2:06 AM 26.6 °F 15.2 °F 24.8 °F 93% 29.94 in 1.5 mi NNW 13.8 mph - 0.00 in Snow Light Snow
2:20 AM 26.6 °F 15.2 °F 23.0 °F 86% 29.94 in 2.5 mi NNW 13.8 mph 21.9 mph 0.01 in Snow Light Snow
2:34 AM 26.6 °F 16.8 °F 23.0 °F 86% 29.94 in 3.0 mi NNW 10.4 mph - 0.01 in Snow Light Snow
2:44 AM 26.6 °F 16.2 °F 23.0 °F 86% 29.93 in 2.5 mi NNW 11.5 mph 23.0 mph 0.01 in Snow Light Snow
2:51 AM 26.6 °F 16.2 °F 21.2 °F 80% 29.93 in 3.0 mi NNW 11.5 mph 19.6 mph 0.01 in Snow Light Snow
2:53 AM 26.1 °F 16.8 °F 21.9 °F 84% 29.99 in 4.0 mi NNW 9.2 mph 19.6 mph 0.01 in Snow Light Snow
3:53 AM 26.1 °F 14.0 °F 18.0 °F 71% 30.02 in 10.0 mi North 15.0 mph - 0.00 in   Overcast
4:53 AM 27.0 °F 14.3 °F 16.0 °F 63% 30.02 in 10.0 mi NNW 17.3 mph 25.3 mph N/A   Overcast
5:53 AM 26.1 °F 18.4 °F 15.1 °F 63% 30.05 in 10.0 mi North 6.9 mph - N/A   Overcast
6:53 AM 27.0 °F 16.7 °F 12.0 °F 53% 30.06 in 10.0 mi NNW 11.5 mph 20.7 mph N/A   Overcast
7:53 AM 25.0 °F 12.2 °F 12.0 °F 58% 30.12 in 10.0 mi NW 16.1 mph 24.2 mph N/A   Overcast
8:53 AM 27.0 °F 12.5 °F 12.0 °F 53% 30.12 in 10.0 mi NNW 23.0 mph 29.9 mph N/A   Overcast
9:53 AM 27.0 °F 12.8 °F 10.0 °F 49% 30.14 in 10.0 mi NNW 21.9 mph 27.6 mph N/A   Partly Cloudy
10:53 AM 30.0 °F 16.3 °F 10.0 °F 43% 30.13 in 10.0 mi NW 24.2 mph 32.2 mph N/A   Clear
11:53 AM 30.9 °F 18.4 °F 8.1 °F 38% 30.12 in 10.0 mi NNW 20.7 mph 33.4 mph N/A   Clear
12:53 PM 30.9 °F 16.9 °F 7.0 °F 37% 30.11 in 10.0 mi NW 26.5 mph 36.8 mph N/A   Clear
1:53 PM 30.9 °F 18.7 °F 9.0 °F 40% 30.11 in 10.0 mi NW 19.6 mph 31.1 mph N/A   Clear
2:53 PM 30.9 °F 18.4 °F 8.1 °F 38% 30.14 in 10.0 mi NW 20.7 mph 32.2 mph N/A   Clear
3:53 PM 30.0 °F 17.2 °F 9.0 °F 41% 30.16 in 10.0 mi NNW 20.7 mph 26.5 mph N/A   Clear
4:53 PM 28.0 °F 17.0 °F 9.0 °F 45% 30.17 in 10.0 mi WNW 13.8 mph 20.7 mph N/A   Clear
5:53 PM 26.1 °F 16.2 °F 8.1 °F 47% 30.20 in 10.0 mi NW 10.4 mph - N/A   Clear
6:53 PM 25.0 °F 15.5 °F 8.1 °F 49% 30.21 in 10.0 mi WNW 9.2 mph - N/A   Clear
7:53 PM 26.1 °F 13.6 °F 8.1 °F 47% 30.20 in 10.0 mi WNW 16.1 mph 25.3 mph N/A   Clear
8:53 PM 26.1 °F - 7.0 °F 44% 30.19 in 10.0 mi North - - N/A   Clear
9:03 PM 24.8 °F - 8.6 °F 50% 30.08 in 10.0 mi North - - N/A   Clear
9:53 PM 27.0 °F 14.3 °F 6.1 °F 41% 30.21 in 10.0 mi West 17.3 mph - N/A   Clear
10:53 PM 26.1 °F 14.5 °F 7.0 °F 44% 30.19 in 10.0 mi WSW 13.8 mph - N/A   Clear
11:53 PM 26.1 °F 16.2 °F 7.0 °F 44% 30.18 in 10.0 mi WSW 10.4 mph - N/A   Clear